TimeCST,TemperatureF,Dew PointF,Humidity,Sea Level PressureIn,VisibilityMPH,Wind Direction,Wind SpeedMPH,Gust SpeedMPH,PrecipitationIn,Events,Conditions,WindDirDegrees,DateUTC
12:15 AM,28.4,23.0,80,30.14,10.0,NE,4.6,-,N/A,,Clear,40,2013-12-01 06:15:00
12:35 AM,26.6,23.0,86,30.14,10.0,NNE,5.8,-,N/A,,Clear,20,2013-12-01 06:35:00
12:55 AM,28.4,24.8,86,30.14,10.0,NE,3.5,-,N/A,,Clear,40,2013-12-01 06:55:00
1:15 AM,26.6,23.0,86,30.13,10.0,North,4.6,-,N/A,,Clear,10,2013-12-01 07:15:00
1:35 AM,24.8,23.0,93,30.13,10.0,North,4.6,-,N/A,,Clear,360,2013-12-01 07:35:00
1:55 AM,24.8,21.2,86,30.13,10.0,North,5.8,-,N/A,,Clear,10,2013-12-01 07:55:00
2:15 AM,24.8,23.0,93,30.13,10.0,North,-9999.0,-,N/A,,Clear,0,2013-12-01 08:15:00
2:35 AM,23.0,21.2,93,30.14,10.0,North,8.1,-,N/A,,Clear,360,2013-12-01 08:35:00
2:55 AM,24.8,21.2,86,30.14,10.0,North,6.9,-,N/A,,Clear,360,2013-12-01 08:55:00
3:15 AM,23.0,21.2,93,30.14,10.0,North,8.1,-,N/A,,Clear,10,2013-12-01 09:15:00
3:35 AM,23.0,21.2,93,30.14,10.0,North,4.6,-,N/A,,Clear,10,2013-12-01 09:35:00
3:55 AM,23.0,19.4,86,30.13,10.0,North,5.8,-,N/A,,Clear,10,2013-12-01 09:55:00
4:15 AM,23.0,21.2,93,30.13,10.0,North,9.2,-,N/A,,Clear,10,2013-12-01 10:15:00
4:35 AM,23.0,19.4,86,30.12,10.0,North,5.8,-,N/A,,Clear,10,2013-12-01 10:35:00
4:55 AM,23.0,21.2,93,30.11,10.0,NNE,5.8,-,N/A,,Clear,20,2013-12-01 10:55:00
5:15 AM,21.2,19.4,93,30.11,10.0,NNE,6.9,-,N/A,,Clear,30,2013-12-01 11:15:00
5:35 AM,23.0,21.2,93,30.12,10.0,NNE,5.8,-,N/A,,Clear,20,2013-12-01 11:35:00
5:55 AM,21.2,19.4,93,30.11,10.0,NE,5.8,-,N/A,,Clear,40,2013-12-01 11:55:00
6:15 AM,23.0,19.4,86,30.11,10.0,NE,6.9,-,N/A,,Clear,50,2013-12-01 12:15:00
6:35 AM,23.0,19.4,86,30.12,10.0,NNE,4.6,-,N/A,,Clear,30,2013-12-01 12:35:00
6:55 AM,23.0,21.2,93,30.12,10.0,NE,4.6,-,N/A,,Clear,50,2013-12-01 12:55:00
7:15 AM,23.0,21.2,93,30.12,10.0,Calm,Calm,-,N/A,,Clear,0,2013-12-01 13:15:00
7:35 AM,23.0,19.4,86,30.12,10.0,North,5.8,-,N/A,,Clear,10,2013-12-01 13:35:00
7:55 AM,21.2,19.4,93,30.12,9.0,North,5.8,-,N/A,,Clear,10,2013-12-01 13:55:00
8:15 AM,23.0,21.2,93,30.13,9.0,North,6.9,-,N/A,,Clear,360,2013-12-01 14:15:00
8:35 AM,24.8,24.8,100,30.14,10.0,NNE,4.6,-,N/A,,Clear,20,2013-12-01 14:35:00
8:55 AM,26.6,24.8,93,30.13,10.0,ENE,4.6,-,N/A,,Partly Cloudy,70,2013-12-01 14:55:00
9:15 AM,30.2,26.6,86,30.13,10.0,NE,5.8,-,N/A,,Partly Cloudy,50,2013-12-01 15:15:00
9:35 AM,32.0,26.6,80,30.13,9.0,East,5.8,-,N/A,,Clear,80,2013-12-01 15:35:00
9:55 AM,32.0,26.6,80,30.12,9.0,East,5.8,-,N/A,,Clear,80,2013-12-01 15:55:00
10:15 AM,35.6,26.6,70,30.12,10.0,East,5.8,-,N/A,,Clear,90,2013-12-01 16:15:00
10:35 AM,35.6,26.6,70,30.11,10.0,East,5.8,-,N/A,,Clear,90,2013-12-01 16:35:00
10:55 AM,37.4,28.4,70,30.10,10.0,ESE,4.6,-,N/A,,Clear,120,2013-12-01 16:55:00
11:15 AM,39.2,28.4,65,30.10,10.0,SE,3.5,-,N/A,,Clear,140,2013-12-01 17:15:00
11:35 AM,41.0,28.4,61,30.10,10.0,Calm,Calm,-,N/A,,Clear,0,2013-12-01 17:35:00
11:55 AM,41.0,28.4,61,30.09,10.0,Calm,Calm,-,N/A,,Clear,0,2013-12-01 17:55:00
12:15 PM,42.8,28.4,57,30.07,10.0,SE,3.5,-,N/A,,Clear,140,2013-12-01 18:15:00
12:35 PM,44.6,28.4,53,30.06,10.0,Calm,Calm,-,N/A,,Clear,0,2013-12-01 18:35:00
12:55 PM,46.4,28.4,50,30.04,10.0,SE,5.8,-,N/A,,Clear,130,2013-12-01 18:55:00
1:15 PM,46.4,28.4,50,30.04,10.0,SSE,5.8,-,N/A,,Clear,160,2013-12-01 19:15:00
1:35 PM,46.4,28.4,50,30.02,10.0,Calm,Calm,-,N/A,,Clear,0,2013-12-01 19:35:00
1:55 PM,46.4,30.2,53,30.00,10.0,SSE,8.1,-,N/A,,Clear,150,2013-12-01 19:55:00
2:15 PM,48.2,30.2,50,29.99,10.0,South,8.1,-,N/A,,Clear,170,2013-12-01 20:15:00
2:35 PM,48.2,30.2,50,29.98,10.0,South,6.9,-,N/A,,Clear,170,2013-12-01 20:35:00
2:55 PM,48.2,30.2,50,29.97,10.0,SSE,6.9,-,N/A,,Clear,160,2013-12-01 20:55:00
3:15 PM,48.2,30.2,50,29.96,10.0,SE,8.1,-,N/A,,Clear,140,2013-12-01 21:15:00
3:35 PM,48.2,30.2,50,29.95,10.0,SSE,8.1,-,N/A,,Clear,150,2013-12-01 21:35:00
3:55 PM,48.2,28.4,46,29.94,10.0,South,10.4,-,N/A,,Clear,170,2013-12-01 21:55:00
4:15 PM,46.4,28.4,50,29.95,10.0,SSE,5.8,-,N/A,,Clear,160,2013-12-01 22:15:00
4:35 PM,44.6,28.4,53,29.94,10.0,SSE,5.8,-,N/A,,Clear,150,2013-12-01 22:35:00
4:55 PM,42.8,28.4,57,29.93,10.0,SSE,6.9,-,N/A,,Partly Cloudy,150,2013-12-01 22:55:00
5:15 PM,41.0,28.4,61,29.95,10.0,Calm,Calm,-,N/A,,Scattered Clouds,0,2013-12-01 23:15:00
5:35 PM,41.0,28.4,61,29.94,10.0,SE,3.5,-,N/A,,Mostly Cloudy,130,2013-12-01 23:35:00
5:55 PM,37.4,28.4,70,29.93,10.0,SE,5.8,-,N/A,,Scattered Clouds,140,2013-12-01 23:55:00
6:15 PM,35.6,26.6,70,29.92,10.0,ESE,8.1,-,N/A,,Scattered Clouds,120,2013-12-02 00:15:00
6:35 PM,37.4,28.4,70,29.92,10.0,SE,4.6,-,N/A,,Partly Cloudy,140,2013-12-02 00:35:00
6:55 PM,37.4,28.4,70,29.91,10.0,SE,5.8,-,N/A,,Clear,130,2013-12-02 00:55:00
7:15 PM,37.4,28.4,70,29.90,10.0,SE,5.8,-,N/A,,Clear,130,2013-12-02 01:15:00
7:35 PM,32.0,26.6,80,29.90,10.0,SE,5.8,-,N/A,,Clear,130,2013-12-02 01:35:00
7:55 PM,33.8,26.6,75,29.89,10.0,ESE,6.9,-,N/A,,Clear,120,2013-12-02 01:55:00
8:15 PM,37.4,28.4,70,29.88,10.0,SE,6.9,-,N/A,,Clear,140,2013-12-02 02:15:00
8:35 PM,35.6,28.4,75,29.87,10.0,SE,8.1,-,N/A,,Clear,140,2013-12-02 02:35:00
8:55 PM,35.6,28.4,75,29.87,10.0,SE,8.1,-,N/A,,Clear,140,2013-12-02 02:55:00
9:15 PM,35.6,28.4,75,29.87,10.0,SSE,8.1,-,N/A,,Clear,150,2013-12-02 03:15:00
9:35 PM,33.8,28.4,81,29.87,10.0,SSE,6.9,-,N/A,,Clear,150,2013-12-02 03:35:00
9:55 PM,32.0,26.6,80,29.86,10.0,SSE,5.8,-,N/A,,Clear,150,2013-12-02 03:55:00
10:15 PM,32.0,28.4,87,29.85,10.0,SSE,5.8,-,N/A,,Clear,160,2013-12-02 04:15:00
10:35 PM,32.0,26.6,80,29.85,10.0,SSE,6.9,-,N/A,,Clear,150,2013-12-02 04:35:00
10:55 PM,32.0,26.6,80,29.83,10.0,SSE,6.9,-,N/A,,Clear,150,2013-12-02 04:55:00
11:15 PM,32.0,26.6,80,29.83,10.0,SSE,6.9,-,N/A,,Clear,150,2013-12-02 05:15:00
11:35 PM,32.0,26.6,80,29.82,10.0,SSE,8.1,-,N/A,,Clear,150,2013-12-02 05:35:00
11:55 PM,32.0,28.4,87,29.82,10.0,South,5.8,-,N/A,,Clear,180,2013-12-02 05:55:00